Cosmos 1005 Rocket - Orbit

View from above orbital plane
View from above orbital plane
View from above satellite
View from above satellite

Ground track
Ground track

The orbit data is extracted from the following two-line orbital elements,

1 10861U 78045B   13145.18057857  .00059858  00000-0  46145-3 0  2907
2 10861 081.1895 134.0361 0005694 355.6921 004.4287 15.71713242927560
Epoch (UTC): 25 May 2013 04:20:01
Eccentricity: 0.0005694
inclination: 81.1895°
perigee height: 350 km
apogee height: 358 km
right ascension of ascending node: 134.0361°
argument of perigee: 355.6921°
revolutions per day: 15.71713242
mean anomaly at epoch: 4.4287°
orbit number at epoch: 92756

The dashed part of the orbit path shows where the satellite is in the earth's shadow,  

Developed and maintained by Chris Peat, Heavens-Above GmbH. Please read the updated FAQ before sending e-mail. Imprint. DLR